Weather in Maly Aral

Russia / Astrakhan Oblast     46°39′50″N   48°27′58″E
temp.,
°C
wind,
m/s
gust,
m/s
humid.,
%
clouds,
%
prec.,
mm/h
press.,
hPa
HPBL,
m
26 july, mon
mon2601:00+28ene610290 0.0 1017348
04:00+26ene48300 0.0 1018212
07:00+26ene49320 0.0 1019428
10:00+31e66240 0.0 10191351
13:00+33ene56190 0.0 10192639
16:00+33ne65190 0.0 10172903
19:00+32ne66210 0.0 10172452
22:00+29ne7112410 0.0 1018532
27 july, tue
tue2701:00+27ene8122271 0.0 1018546
04:00+25e5924100 0.0 1018438
07:00+25e5926100 0.0 1019657
10:00+27e6723100 0.0 10191474
13:00+29ne7720100 0.0 10182346
16:00+30nne5619100 0.0 10162513
19:00+29nne6721100 0.0 10161810
22:00+27nne5822100 0.0 1016401
28 july, wed
wed2801:00+26nne4825100 0.0 1016235
04:00+24n4829100 0.0 1015150
07:00+24n3732100 0.0 1016254
10:00+29nne4523100 0.0 10162420
13:00+31n5522100 0.0 10152881
16:00+31n562110 0.0 10143123
19:00+31nne56224 0.0 10142886
22:00+27n332638 0.0 101531
29 july, thu
thu2901:00+26n332931 0.0 101436
04:00+26ese342931 0.0 101484
07:00+26sse23311 0.0 101597
10:00+31ese12220 0.0 10152202
13:00+32ne22195 0.0 10143142
16:00+34nne341841 0.0 10133228
19:00+33sse442125 0.0 10121799
22:00+27ssw611365 0.0 1014353
30 july, fri
fri3001:00+24sw511492 0.0 1013261
04:00+23sw48530 0.0 1013173
07:00+24wsw46470 0.0 1014191
10:00+32wsw44231 0.0 1014933
13:00+35w12180 0.0 10133185
16:00+36ese23167 0.0 10123662
19:00+33sse77200 0.0 1012932
22:00+26ssw59290 0.0 1013213